Location: Waco, TX
(31.5480°N, 97.1670°W)
Time: 00:51:52
(UTC-06:00)

ISS - Pass Details

Date: 14 January 2018
Orbit: 402 x 407 km, 51.6° (Epoch: 21 January)

Event Time Altitude Azimuth Distance (km) Brightness Sun altitude
Rises 23:35:04 0° 250° (WSW) 2,302 - -72.5°
Reaches altitude 10° 23:37:23 10° 265° (W) 1,447 - -72.9°
Maximum altitude 23:40:06 24° 322° (NW) 877 - -73.4°
Drops below altitude 10° 23:42:50 10° 19° (NNE) 1,454 - -73.9°
Sets 23:45:10 0° 33° (NNE) 2,317 - -74.3°
